Total_Precipitation_Accumulation
0.12 0.10 0.10 0.14 0.25 0.44 0.78 0.54 0.22 0.14 0.17 0.20 0.45 0.54 0.46 0.38 0.64 0.79 0.50 0.32 0.68 0.96 0.23 0.03 0.03 0.08 0.07 0.05 0.12 0.10 0.14 0.17 0.21 0.17 0.11 0.08 0.03 0.01 0.02 0.01 0.01 0.01 0.01 0.03 0.05 0.11 0.03 0.00 0.00 0.01 0.03 0.00 0.00 0.00
0.12 0.09 0.10 0.11 0.20 0.36 0.55 0.86 0.28 0.18 0.14 0.17 0.28 0.52 0.64 0.45 0.57 0.91 0.78 0.31 0.43 0.69 0.53 0.14 0.04 0.01 0.08 0.06 0.09 0.09 0.08 0.05 0.12 0.13 0.04 0.01 0.01 0.01 0.01 0.01 0.01 0.03 0.02 0.01 0.02 0.01 0.01 0.00 0.00 0.00 0.00 0.00 0.00 0.00
0.12 0.09 0.09 0.08 0.15 0.38 0.46 0.88 0.42 0.23 0.14 0.14 0.23 0.44 0.74 0.72 0.59 0.79 0.77 0.50 0.49 0.56 0.40 0.32 0.29 0.07 0.02 0.01 0.01 0.08 0.08 0.07 0.08 0.11 0.24 0.19 0.11 0.03 0.03 0.02 0.01 0.00 0.00 0.01 0.03 0.00 0.00 0.00 0.00 0.01 0.01 0.01 0.00 0.00
0.10 0.09 0.10 0.10 0.13 0.38 0.60 0.79 0.56 0.29 0.19 0.16 0.23 0.45 0.64 0.81 0.70 0.73 0.73 0.45 0.49 0.38 0.33 0.22 0.28 0.27 0.13 0.02 0.01 0.01 0.05 0.06 0.11 0.10 0.17 0.19 0.10 0.03 0.02 0.02 0.03 0.01 0.03 0.04 0.04 0.01 0.01 0.01 0.01 0.01 0.01 0.01 0.00 0.00
0.10 0.10 0.11 0.10 0.13 0.41 0.74 0.86 0.62 0.35 0.26 0.19 0.25 0.48 0.59 0.81 0.75 0.76 0.69 0.30 0.36 0.54 0.45 0.16 0.22 0.18 0.20 0.11 0.02 0.01 0.03 0.10 0.16 0.20 0.17 0.10 0.04 0.06 0.04 0.03 0.01 0.00 0.02 0.08 0.04 0.02 0.03 0.01 0.01 0.02 0.02 0.01 0.01 0.01
0.09 0.08 0.09 0.07 0.09 0.47 0.74 0.96 0.60 0.40 0.30 0.22 0.32 0.46 0.48 0.71 0.87 1.02 1.52 0.80 0.32 0.66 0.62 0.37 0.21 0.19 0.16 0.08 0.02 0.01 0.02 0.05 0.15 0.18 0.13 0.07 0.01 0.07 0.11 0.02 0.00 0.00 0.00 0.00 0.00 0.00 0.00 0.00 0.00 0.00 0.00 0.00 0.00 0.00
0.07 0.05 0.06 0.10 0.20 0.66 0.88 0.91 0.57 0.42 0.31 0.30 0.38 0.43 0.54 0.87 0.90 0.83 0.68 0.41 0.22 0.49 0.73 0.41 0.20 0.10 0.13 0.05 0.02 0.02 0.03 0.05 0.08 0.14 0.12 0.05 0.03 0.10 0.12 0.02 0.00 0.00 0.00 0.00 0.00 0.00 0.00 0.00 0.00 0.00 0.00 0.00 0.00 0.00
0.04 0.04 0.07 0.13 0.43 0.83 0.90 0.72 0.58 0.44 0.43 0.54 0.59 0.57 0.67 0.74 0.86 0.64 0.20 0.11 0.20 0.31 0.47 0.38 0.21 0.08 0.06 0.06 0.06 0.05 0.08 0.13 0.14 0.12 0.07 0.04 0.04 0.14 0.13 0.00 0.00 0.00 0.00 0.00 0.00 0.00 0.00 0.00 0.00 0.00 0.00 0.00 0.00 0.00
0.06 0.10 0.12 0.38 0.84 0.92 0.65 0.57 0.61 0.56 0.61 0.49 0.48 0.58 0.81 1.00 1.03 0.69 0.32 0.43 0.34 0.21 0.28 0.15 0.11 0.06 0.03 0.05 0.08 0.16 0.24 0.28 0.13 0.11 0.04 0.04 0.05 0.05 0.01 0.00 0.00 0.00 0.00 0.00 0.00 0.00 0.00 0.00 0.00 0.00 0.00 0.00 0.00 0.00
0.44 0.72 0.86 0.97 0.94 0.76 0.66 0.67 0.63 0.52 0.37 0.39 0.65 0.88 1.19 0.91 0.41 0.51 1.12 1.49 1.20 0.33 0.09 0.04 0.01 0.08 0.06 0.08 0.11 0.12 0.15 0.13 0.16 0.05 0.06 0.10 0.02 0.00 0.00 0.00 0.00 0.00 0.00 0.00 0.00 0.00 0.00 0.00 0.00 0.01 0.00 0.00 0.00 0.00
0.50 0.66 0.84 0.95 1.06 1.04 0.79 0.57 0.46 0.44 0.58 0.92 1.10 0.64 0.60 0.45 0.40 0.70 0.89 0.72 0.57 0.33 0.04 0.01 0.00 0.05 0.03 0.13 0.15 0.15 0.19 0.15 0.10 0.03 0.07 0.04 0.00 0.00 0.00 0.00 0.00 0.00 0.00 0.00 0.00 0.00 0.00 0.00 0.00 0.00 0.00 0.00 0.01 0.01
0.63 0.66 0.69 0.69 0.60 0.46 0.32 0.33 0.37 0.64 0.87 0.58 0.22 0.27 0.34 0.39 0.42 0.34 0.30 0.25 0.22 0.08 0.01 0.00 0.00 0.02 0.06 0.16 0.26 0.25 0.17 0.16 0.12 0.13 0.16 0.04 0.00 0.00 0.01 0.05 0.05 0.02 0.02 0.01 0.02 0.01 0.00 0.00 0.00 0.00 0.00 0.00 0.01 0.00
0.45 0.41 0.33 0.28 0.24 0.21 0.21 0.27 0.32 0.27 0.15 0.19 0.21 0.23 0.25 0.25 0.26 0.18 0.12 0.11 0.14 0.07 0.02 0.01 0.02 0.07 0.11 0.09 0.19 0.31 0.27 0.18 0.09 0.09 0.04 0.00 0.00 0.02 0.07 0.08 0.03 0.00 0.00 0.00 0.00 0.00 0.00 0.00 0.00 0.00 0.00 0.01 0.01 0.01
0.17 0.15 0.17 0.23 0.32 0.29 0.25 0.22 0.10 0.07 0.07 0.16 0.18 0.13 0.12 0.10 0.07 0.05 0.02 0.03 0.02 0.03 0.02 0.04 0.08 0.15 0.14 0.13 0.10 0.10 0.09 0.09 0.10 0.06 0.00 0.03 0.09 0.09 0.03 0.00 0.00 0.00 0.00 0.00 0.00 0.00 0.00 0.00 0.00 0.00 0.01 0.01 0.01 0.02
0.08 0.09 0.21 0.27 0.20 0.13 0.07 0.02 0.01 0.02 0.10 0.11 0.11 0.03 0.02 0.03 0.03 0.02 0.04 0.08 0.05 0.06 0.07 0.12 0.20 0.21 0.23 0.16 0.03 0.04 0.06 0.03 0.01 0.00 0.03 0.07 0.04 0.01 0.01 0.00 0.00 0.00 0.00 0.00 0.00 0.00 0.00 0.00 0.00 0.00 0.00 0.00 0.00 0.01
0.05 0.09 0.08 0.05 0.04 0.03 0.01 0.02 0.06 0.12 0.16 0.11 0.07 0.06 0.04 0.02 0.03 0.02 0.04 0.06 0.07 0.09 0.15 0.15 0.32 0.33 0.36 0.21 0.07 0.01 0.01 0.01 0.03 0.07 0.10 0.07 0.03 0.01 0.00 0.00 0.00 0.00 0.00 0.01 0.00 0.00 0.00 0.00 0.00 0.00 0.02 0.03 0.02 0.01
0.03 0.04 0.03 0.02 0.02 0.03 0.03 0.10 0.17 0.25 0.20 0.10 0.10 0.07 0.09 0.08 0.03 0.01 0.02 0.04 0.04 0.11 0.12 0.07 0.12 0.17 0.14 0.12 0.05 0.01 0.01 0.02 0.05 0.04 0.01 0.00 0.00 0.00 0.00 0.00 0.00 0.00 0.00 0.00 0.00 0.00 0.00 0.00 0.01 0.01 0.02 0.04 0.03 0.03
0.03 0.03 0.01 0.02 0.03 0.08 0.11 0.12 0.15 0.11 0.13 0.14 0.15 0.10 0.08 0.07 0.04 0.01 0.01 0.03 0.03 0.04 0.10 0.07 0.04 0.04 0.06 0.06 0.07 0.08 0.12 0.07 0.03 0.02 0.00 0.00 0.00 0.00 0.00 0.00 0.00 0.00 0.00 0.00 0.00 0.00 0.00 0.00 0.01 0.02 0.03 0.02 0.02 0.02
0.01 0.01 0.01 0.01 0.01 0.04 0.10 0.10 0.14 0.21 0.12 0.13 0.14 0.11 0.10 0.10 0.05 0.01 0.01 0.02 0.03 0.04 0.06 0.06 0.08 0.03 0.02 0.03 0.06 0.04 0.01 0.01 0.01 0.01 0.01 0.01 0.00 0.00 0.00 0.00 0.00 0.00 0.00 0.00 0.00 0.00 0.00 0.00 0.00 0.00 0.00 0.00 0.00 0.00
0.00 0.00 0.00 0.00 0.01 0.08 0.12 0.17 0.09 0.12 0.19 0.25 0.17 0.13 0.15 0.12 0.06 0.03 0.05 0.05 0.10 0.14 0.12 0.05 0.01 0.01 0.02 0.01 0.00 0.00 0.00 0.00 0.01 0.02 0.03 0.03 0.02 0.01 0.01 0.01 0.01 0.01 0.01 0.01 0.00 0.01 0.00 0.01 0.00 0.00 0.00 0.00 0.00 0.00
0.02 0.02 0.01 0.02 0.07 0.16 0.20 0.25 0.21 0.15 0.25 0.26 0.20 0.13 0.20 0.11 0.15 0.16 0.20 0.16 0.19 0.16 0.05 0.01 0.02 0.01 0.00 0.00 0.00 0.00 0.00 0.00 0.01 0.01 0.01 0.02 0.02 0.02 0.04 0.04 0.03 0.02 0.01 0.01 0.01 0.01 0.01 0.00 0.00 0.00 0.00 0.01 0.01 0.01
0.01 0.02 0.06 0.07 0.12 0.10 0.10 0.10 0.17 0.17 0.16 0.21 0.18 0.12 0.20 0.21 0.20 0.19 0.26 0.26 0.13 0.05 0.02 0.01 0.00 0.00 0.00 0.00 0.00 0.00 0.00 0.00 0.00 0.01 0.01 0.01 0.03 0.04 0.05 0.03 0.02 0.02 0.01 0.00 0.00 0.01 0.01 0.00 0.00 0.01 0.02 0.03 0.02 0.02
0.01 0.04 0.09 0.06 0.07 0.04 0.03 0.04 0.10 0.11 0.22 0.18 0.14 0.15 0.13 0.15 0.13 0.10 0.24 0.16 0.07 0.03 0.00 0.00 0.00 0.00 0.00 0.00 0.00 0.00 0.00 0.00 0.00 0.01 0.02 0.03 0.02 0.03 0.04 0.03 0.01 0.01 0.01 0.01 0.00 0.01 0.01 0.00 0.01 0.02 0.03 0.03 0.03 0.05
0.01 0.07 0.16 0.16 0.09 0.04 0.01 0.02 0.05 0.08 0.09 0.07 0.10 0.11 0.07 0.06 0.05 0.09 0.07 0.02 0.03 0.04 0.01 0.01 0.02 0.01 0.00 0.00 0.00 0.00 0.00 0.00 0.00 0.01 0.01 0.02 0.04 0.06 0.04 0.04 0.04 0.04 0.02 0.02 0.03 0.03 0.03 0.04 0.04 0.04 0.06 0.05 0.07 0.07
0.12 0.08 0.05 0.04 0.04 0.06 0.02 0.01 0.01 0.04 0.08 0.05 0.07 0.07 0.04 0.03 0.08 0.03 0.01 0.02 0.03 0.05 0.04 0.01 0.01 0.01 0.02 0.04 0.04 0.04 0.02 0.01 0.01 0.01 0.02 0.01 0.03 0.04 0.06 0.05 0.05 0.05 0.04 0.09 0.08 0.06 0.09 0.09 0.09 0.08 0.09 0.09 0.10 0.10
0.03 0.01 0.01 0.02 0.02 0.02 0.01 0.02 0.03 0.04 0.03 0.06 0.08 0.06 0.04 0.07 0.07 0.02 0.02 0.06 0.06 0.04 0.04 0.02 0.01 0.01 0.02 0.04 0.06 0.06 0.04 0.01 0.00 0.00 0.02 0.02 0.02 0.02 0.02 0.02 0.02 0.02 0.03 0.05 0.05 0.08 0.07 0.09 0.09 0.10 0.11 0.12 0.11 0.09
0.01 0.01 0.01 0.00 0.00 0.01 0.01 0.01 0.01 0.01 0.02 0.03 0.04 0.05 0.08 0.10 0.04 0.02 0.08 0.09 0.05 0.03 0.03 0.03 0.02 0.02 0.01 0.01 0.02 0.04 0.02 0.01 0.00 0.01 0.00 0.01 0.01 0.01 0.02 0.01 0.01 0.00 0.00 0.01 0.02 0.02 0.03 0.05 0.06 0.07 0.08 0.10 0.09 0.07
0.00 0.00 0.01 0.01 0.01 0.01 0.02 0.02 0.02 0.02 0.02 0.02 0.01 0.02 0.04 0.03 0.02 0.03 0.05 0.03 0.02 0.01 0.02 0.04 0.05 0.03 0.00 0.00 0.01 0.01 0.02 0.01 0.01 0.01 0.01 0.02 0.02 0.01 0.00 0.01 0.00 0.00 0.01 0.01 0.01 0.01 0.02 0.02 0.03 0.04 0.06 0.06 0.08 0.08
0.00 0.00 0.00 0.00 0.01 0.01 0.02 0.02 0.02 0.02 0.02 0.02 0.01 0.01 0.01 0.01 0.02 0.02 0.02 0.02 0.01 0.01 0.02 0.04 0.07 0.07 0.06 0.04 0.04 0.03 0.03 0.01 0.01 0.01 0.02 0.03 0.02 0.02 0.01 0.01 0.02 0.01 0.01 0.01 0.02 0.01 0.01 0.01 0.02 0.03 0.03 0.04 0.06 0.06
0.01 0.00 0.01 0.00 0.00 0.01 0.03 0.02 0.04 0.04 0.02 0.01 0.01 0.01 0.01 0.01 0.01 0.01 0.01 0.01 0.02 0.02 0.03 0.04 0.03 0.05 0.05 0.05 0.07 0.08 0.07 0.05 0.03 0.03 0.03 0.03 0.01 0.01 0.01 0.02 0.02 0.03 0.03 0.02 0.03 0.05 0.04 0.04 0.05 0.05 0.04 0.05 0.05 0.06
0.00 0.01 0.01 0.01 0.01 0.02 0.03 0.02 0.01 0.01 0.01 0.01 0.01 0.02 0.01 0.01 0.01 0.01 0.01 0.01 0.01 0.02 0.03 0.03 0.03 0.02 0.03 0.03 0.04 0.04 0.05 0.03 0.03 0.02 0.02 0.02 0.01 0.01 0.02 0.02 0.02 0.02 0.02 0.02 0.02 0.03 0.03 0.03 0.03 0.03 0.03 0.03 0.03 0.03
0.01 0.01 0.01 0.01 0.01 0.02 0.01 0.01 0.01 0.01 0.01 0.02 0.01 0.01 0.02 0.02 0.01 0.00 0.01 0.00 0.01 0.02 0.02 0.03 0.03 0.03 0.01 0.02 0.02 0.02 0.02 0.01 0.01 0.01 0.02 0.01 0.01 0.02 0.02 0.03 0.03 0.03 0.02 0.03 0.04 0.04 0.03 0.03 0.03 0.03 0.03 0.03 0.03 0.04
0.01 0.01 0.01 0.02 0.01 0.01 0.02 0.01 0.01 0.01 0.01 0.02 0.02 0.03 0.03 0.03 0.01 0.01 0.01 0.01 0.02 0.03 0.03 0.04 0.05 0.05 0.03 0.03 0.03 0.03 0.03 0.03 0.03 0.03 0.05 0.05 0.03 0.04 0.05 0.06 0.06 0.05 0.05 0.05 0.05 0.05 0.06 0.05 0.05 0.05 0.05 0.04 0.04 0.04